Powrót do katalogu

FENGYUN 1C DEB

AktywnyPO
NORAD 32419·DEBRIS·🇨🇳 China

Wystrzelony May 10, 1999 z Taiyuan Satellite Launch Center

Loading…

Następne Przeloty (najbliższe 24 godziny)

TLE

Starzejące sięSource: Space-Track

Epoka: Sep 8, 2026, 12:12 UTC

1 32419U 99025DAF 26251.50865289  .00000684  00000-0  28190-3 0  9994
2 32419  97.9477 161.0991 0280905 326.8586  31.5258 14.10547935673732

Śledź FENGYUN 1C DEB w czasie rzeczywistym z AllMySat

Download on the App Store